[[{"header":{"parameterUnit":"m.s-1","parameterCategory":1,"la1":30.2991,"la2":30.254,"lo1":-89.0895,"lo2":-89.0444,"dy":0.0017,"dx":0.0017,"nx":28,"ny":28,"refTime":"2025-09-05T03:00:00:Z","depth":0,"parameterNumber":2,"parameterNumberName":"U-component_of_WINDS"},"data":[0,0,0,0,0,0,0,0,0,0,0,0,0,0,0,0,0,0,0,0,0,0,0,0,0,0,0,0,0,0,0,0,0,0,0,0,0,0,0,0,0,0,0,0,0,0,0,0,0,0,0,0,0,0,0,0,0,0,0.9565,0.9564,0,0.9541,0.9541,0.9541,0.9506,0.9505,0.9505,0.9504,0.9481,0.9481,0.948,0,0,0,0,0,0,0,0,0,0,0,0,0,0.9579,0.9579,0.9565,0.9564,0.9564,0.9541,0.9541,0.9541,0.9506,0.9505,0.9505,0.9504,0.9481,0.9481,0.948,0,0,0,0,0,0,0,0,0,0,0,0,0,0.9566,0.9579,0.9565,0.9544,0.9542,0.9541,0.9541,0.954,0.9506,0.9505,0.9505,0.9504,0.9481,0.9481,0.948,0.9498,0,0,0.948,0.948,0,0,0,0,0,0,0,0,0.9567,0.9566,0.9548,0.9546,0.9543,0.9526,0.9537,0.9526,0.9507,0.952,0.9504,0.9503,0.9496,0.9495,0.9492,0.9497,0.9496,0.948,0.948,0.948,0.948,0,0,0,0,0,0,0,0.9568,0.9567,0.9555,0.9547,0.9545,0.9536,0.9533,0.9535,0.9514,0.9519,0.9516,0.9514,0.9495,0.9493,0.9492,0.9495,0.948,0.948,0.948,0.948,0.9511,0.9512,0,0,0,0,0,0,0.9572,0.9568,0.9556,0.9555,0.9553,0.9537,0.9533,0.9532,0.9513,0.951,0.9515,0.9512,0.9493,0.9492,0.9491,0.9508,0.948,0.948,0.948,0.951,0.9511,0.9512,0,0,0,0,0,0,0.9572,0.9571,0.9557,0.956,0.9558,0.9537,0.9536,0.9532,0.953,0.951,0.9506,0.9516,0.9492,0.9491,0.9496,0.9507,0.948,0.948,0.9509,0.9511,0.9512,0.9545,0,0,0,0,0,0,0.9573,0.9572,0.9578,0.9561,0.9558,0.9563,0.9537,0.9532,0.953,0.9526,0.9511,0.9507,0.9492,0.9496,0.9496,0.9507,0.948,0.9508,0.951,0.9511,0.9543,0.9547,0.9551,0,0,0,0,0,0.9574,0.9589,0.9579,0.9578,0.9566,0.9564,0.9562,0.9544,0.9531,0.9537,0.9524,0.9508,0.9506,0.9497,0.9496,0.9507,0.9507,0.9509,0.9511,0.9541,0.9546,0.9551,0,0,0,0,0,0,0.9608,0.9586,0.9575,0.9585,0.9576,0.9558,0.9565,0.955,0.9545,0.9543,0.952,0.9517,0.9525,0.9517,0.9507,0.9522,0.9504,0.9506,0.9527,0.9532,0.9536,0.9537,0.948,0,0,0,0,0,0.9617,0.9618,0.9598,0.9609,0.9605,0.9586,0.9585,0.9571,0.9561,0.9558,0.9545,0.9537,0.9534,0.9533,0.953,0.9542,0.9537,0.9549,0.9553,0.9557,0.9558,0.9563,0.9567,0.9519,0.9519,0.9519,0,0,0.9636,0.9623,0.9625,0.9616,0.9607,0.9608,0.9583,0.9585,0.9585,0.9558,0.9561,0.9552,0.9541,0.955,0.9553,0.9543,0.9571,0.9559,0.9562,0.9562,0.9565,0.957,0.9574,0.952,0.952,0.952,0,0,0.9669,0.966,0.9667,0.9659,0.9647,0.9634,0.9636,0.962,0.9612,0.9616,0.9595,0.9595,0.9591,0.9583,0.9579,0.9609,0.9593,0.9608,0.963,0.9634,0.9638,0.9641,0.965,0.9654,0.961,0.961,0.961,0,0.9693,0.9692,0.9673,0.9676,0.9671,0.9647,0.9654,0.9647,0.9635,0.9633,0.9622,0.9616,0.9607,0.9612,0.962,0.9617,0.9618,0.9609,0.9639,0.9642,0.9645,0.9653,0.9657,0.9612,0.9612,0.9612,0.9612,0,0.9722,0.9722,0.9729,0.9717,0.9714,0.9719,0.97,0.9699,0.9686,0.9674,0.9677,0.9665,0.9659,0.9659,0.9647,0.9663,0.9657,0.9643,0.9624,0.9652,0.9659,0.9662,0.9615,0.9614,0.9614,0.9613,0,0,0.9776,0.9752,0.9755,0.9749,0.9733,0.9733,0.9737,0.973,0.9729,0.9721,0.9723,0.972,0.9707,0.9702,0.9688,0.9693,0.9715,0.9678,0.9677,0.9684,0.973,0.9739,0.9743,0.9705,0.9705,0.9706,0.973,0,0.9804,0.9809,0.9791,0.98,0.9799,0.9775,0.9778,0.9769,0.9758,0.9755,0.9743,0.9741,0.9725,0.9721,0.9725,0.9711,0.9723,0.971,0.9705,0.9705,0.9707,0.9747,0.9757,0.9781,0.9733,0.9734,0.9734,0,0.9838,0.9832,0.984,0.9823,0.9822,0.9825,0.9817,0.9815,0.9804,0.9795,0.979,0.9774,0.9775,0.9758,0.9759,0.975,0.9748,0.9741,0.9741,0.9739,0.972,0.9745,0.9788,0.9791,0.9739,0.9738,0.9738,0,0.9875,0.9868,0.9872,0.9867,0.9848,0.9851,0.9843,0.9831,0.9827,0.982,0.9817,0.9811,0.9807,0.9802,0.9784,0.9774,0.9787,0.9769,0.9779,0.9779,0.9782,0.9782,0.9824,0.9783,0.9783,0.9783,0.9782,0,0.9908,0.9914,0.9888,0.989,0.9895,0.9875,0.9881,0.9871,0.986,0.986,0.984,0.9839,0.9817,0.9814,0.9801,0.9803,0.9802,0.9794,0.979,0.9795,0.9796,0.9792,0.9789,0.9783,0.9783,0.9783,0.9783,0,0.9949,0.9932,0.9934,0.9916,0.9911,0.9916,0.99,0.9901,0.9889,0.9888,0.9887,0.9867,0.9863,0.9845,0.9837,0.9828,0.9834,0.9827,0.9837,0.9834,0.9845,0.9844,0.9885,0.9889,0.9847,0.9847,0.9848,0,0.997,0.9974,0.9956,0.9954,0.9947,0.9944,0.994,0.992,0.9917,0.9904,0.9907,0.9901,0.9894,0.9888,0.9873,0.9866,0.9858,0.9873,0.9857,0.9862,0.9857,0.9856,0.9856,0.9877,0.9877,0.9878,0.9878,0,1.001,1.0001,0.9996,0.9988,0.9984,0.9977,0.9969,0.9969,0.9947,0.9944,0.9939,0.9934,0.9925,0.9919,0.9909,0.9901,0.9885,0.9883,0.9885,0.9889,0.9894,0.989,0.9845,0.9882,0.9882,0.9881,0.9881,0.9881,1.004,1.0042,1.0029,1.0024,1.0016,1.0009,1.0008,0.9996,0.9991,0.9982,0.9971,0.9967,0.9954,0.994,0.9933,0.9929,0.992,0.9923,0.9924,0.9924,0.9926,0.9896,0.9927,0.9927,0.9927,0.9927,0.9927,0,1.0077,1.0068,1.0064,1.0052,1.0048,1.0035,1.0024,1.0022,1.0019,1.0009,1.0003,0.9997,0.999,0.9975,0.9967,0.9967,0.9959,0.9965,0.9964,0.9962,0.9935,0.9934,0.9971,0.9971,0.9971,0.9971,0.9971,0.9971,1.0096,1.0098,1.0087,1.0084,1.0075,1.0071,1.0066,1.0059,1.005,1.0044,1.0039,1.0029,1.0016,1.0007,1.0,0.9995,0.9993,1.0001,0.9994,0.9968,0.9964,0.996,0.9959,1.0001,1.0001,1.0021,1.0021,1.0021]},{"header":{"parameterUnit":"m.s-1","parameterCategory":1,"la1":30.2991,"la2":30.254,"lo1":-89.0895,"lo2":-89.0444,"dy":0.0017,"dx":0.0017,"nx":28,"ny":28,"refTime":"2025-09-05T03:00:00:Z","depth":0,"parameterNumber":3,"parameterNumberName":"V-component_of_WINDS"},"data":[0,0,0,0,0,0,0,0,0,0,0,0,0,0,0,0,0,0,0,0,0,0,0,0,0,0,0,0,0,0,0,0,0,0,0,0,0,0,0,0,0,0,0,0,0,0,0,0,0,0,0,0,0,0,0,0,0,0,-1.2392,-1.2393,0,-1.2428,-1.2429,-1.2429,-1.2463,-1.2464,-1.2464,-1.2465,-1.2502,-1.2502,-1.2503,0,0,0,0,0,0,0,0,0,0,0,0,0,-1.2354,-1.2355,-1.2392,-1.2393,-1.2393,-1.2428,-1.2429,-1.2429,-1.2463,-1.2464,-1.2464,-1.2465,-1.2502,-1.2502,-1.2503,0,0,0,0,0,0,0,0,0,0,0,0,0,-1.2379,-1.2355,-1.2392,-1.2414,-1.2417,-1.2428,-1.2429,-1.2429,-1.2463,-1.2464,-1.2464,-1.2465,-1.2501,-1.2502,-1.2503,-1.2496,0,0,-1.2506,-1.2506,0,0,0,0,0,0,0,0,-1.2377,-1.238,-1.2411,-1.2413,-1.2416,-1.2442,-1.2429,-1.2452,-1.2463,-1.2446,-1.2465,-1.2465,-1.2481,-1.2484,-1.2489,-1.2497,-1.2499,-1.2506,-1.2506,-1.2507,-1.2507,0,0,0,0,0,0,0,-1.2375,-1.2379,-1.2407,-1.2411,-1.2414,-1.2423,-1.2427,-1.2433,-1.2459,-1.2447,-1.245,-1.2453,-1.2483,-1.2488,-1.249,-1.2499,-1.2506,-1.2507,-1.2507,-1.2507,-1.2505,-1.2504,0,0,0,0,0,0,-1.237,-1.2377,-1.2405,-1.2408,-1.2398,-1.2423,-1.2428,-1.2433,-1.2459,-1.2464,-1.2453,-1.2455,-1.2487,-1.2489,-1.2492,-1.2485,-1.2507,-1.2508,-1.2508,-1.2505,-1.2504,-1.2504,0,0,0,0,0,0,-1.2369,-1.2372,-1.2404,-1.2393,-1.2398,-1.2423,-1.2429,-1.2433,-1.2439,-1.2464,-1.2469,-1.2454,-1.2487,-1.2491,-1.2495,-1.2487,-1.2508,-1.2509,-1.2506,-1.2505,-1.2504,-1.2472,0,0,0,0,0,0,-1.2368,-1.2372,-1.2369,-1.2393,-1.2398,-1.2405,-1.2428,-1.2433,-1.244,-1.2443,-1.2466,-1.247,-1.2488,-1.2493,-1.2495,-1.2489,-1.2509,-1.2507,-1.2505,-1.2504,-1.2473,-1.247,-1.2466,0,0,0,0,0,-1.2367,-1.2358,-1.2368,-1.2372,-1.2395,-1.2405,-1.2408,-1.2429,-1.2439,-1.2437,-1.2453,-1.2469,-1.2488,-1.2493,-1.2496,-1.2489,-1.2507,-1.2506,-1.2504,-1.2475,-1.247,-1.2466,0,0,0,0,0,0,-1.2332,-1.2361,-1.2373,-1.2372,-1.2386,-1.2411,-1.2408,-1.2423,-1.2434,-1.2436,-1.2462,-1.2466,-1.2468,-1.2479,-1.2485,-1.2484,-1.25,-1.2499,-1.2476,-1.2472,-1.2469,-1.2466,-1.251,0,0,0,0,0,-1.2325,-1.233,-1.2356,-1.2352,-1.2359,-1.2382,-1.2387,-1.2402,-1.2417,-1.2423,-1.244,-1.2454,-1.2463,-1.2469,-1.2478,-1.2476,-1.2482,-1.2473,-1.2469,-1.2466,-1.2465,-1.2465,-1.2462,-1.2499,-1.2499,-1.2499,0,0,-1.2309,-1.2325,-1.2327,-1.2346,-1.2358,-1.2364,-1.2387,-1.2391,-1.2396,-1.2424,-1.2429,-1.2442,-1.2459,-1.246,-1.2461,-1.247,-1.2456,-1.2465,-1.2462,-1.2462,-1.2464,-1.246,-1.2457,-1.2498,-1.2499,-1.2499,0,0,-1.2282,-1.2295,-1.2294,-1.2306,-1.2325,-1.2341,-1.2341,-1.2364,-1.2373,-1.2379,-1.24,-1.2407,-1.2422,-1.2434,-1.2442,-1.2422,-1.2437,-1.2425,-1.2406,-1.2406,-1.2403,-1.24,-1.2393,-1.2391,-1.2423,-1.2423,-1.2423,0,-1.226,-1.2269,-1.2292,-1.2295,-1.2303,-1.233,-1.2329,-1.234,-1.2361,-1.2366,-1.2375,-1.2395,-1.2409,-1.2413,-1.2409,-1.2414,-1.2415,-1.2421,-1.2401,-1.2399,-1.2397,-1.2391,-1.2388,-1.2422,-1.2422,-1.2422,-1.2422,0,-1.2241,-1.2247,-1.2244,-1.2263,-1.2271,-1.2272,-1.2296,-1.2301,-1.2316,-1.2331,-1.2337,-1.2355,-1.2369,-1.2372,-1.2386,-1.2379,-1.2383,-1.2397,-1.2413,-1.2391,-1.2386,-1.2384,-1.2419,-1.242,-1.242,-1.2421,0,0,-1.2192,-1.2225,-1.2224,-1.2233,-1.2257,-1.2262,-1.2265,-1.2279,-1.2283,-1.2298,-1.2301,-1.2314,-1.2327,-1.2337,-1.2353,-1.2353,-1.2337,-1.2367,-1.2367,-1.236,-1.233,-1.2319,-1.2316,-1.2348,-1.2347,-1.2347,-1.2328,0,-1.2169,-1.2176,-1.2197,-1.2198,-1.2204,-1.223,-1.2233,-1.2248,-1.2263,-1.2271,-1.2288,-1.2297,-1.2313,-1.2319,-1.2321,-1.2338,-1.2331,-1.234,-1.2351,-1.2351,-1.2345,-1.2313,-1.2301,-1.2282,-1.2326,-1.2326,-1.2326,0,-1.2142,-1.2155,-1.2156,-1.218,-1.2184,-1.2186,-1.2201,-1.2209,-1.2227,-1.2238,-1.2249,-1.2267,-1.2273,-1.2289,-1.2297,-1.2303,-1.231,-1.2319,-1.2319,-1.232,-1.2336,-1.2313,-1.2277,-1.2274,-1.2323,-1.2323,-1.2323,0,-1.2106,-1.2124,-1.2127,-1.2135,-1.2163,-1.2164,-1.2176,-1.2195,-1.2202,-1.2216,-1.2221,-1.2235,-1.2243,-1.2254,-1.2276,-1.2286,-1.2283,-1.23,-1.2292,-1.2292,-1.2289,-1.2289,-1.2254,-1.2294,-1.2295,-1.2295,-1.2295,0,-1.2078,-1.2077,-1.2111,-1.2113,-1.2114,-1.2139,-1.214,-1.2154,-1.2171,-1.2177,-1.2201,-1.2206,-1.2235,-1.2244,-1.2261,-1.2266,-1.2269,-1.2279,-1.2283,-1.2276,-1.2275,-1.228,-1.2281,-1.2294,-1.2294,-1.2294,-1.2294,0,-1.2037,-1.2059,-1.2065,-1.2092,-1.2098,-1.2098,-1.2121,-1.2124,-1.2141,-1.2148,-1.2152,-1.2178,-1.219,-1.2214,-1.2232,-1.2244,-1.2244,-1.2253,-1.2238,-1.224,-1.2231,-1.2231,-1.2197,-1.2194,-1.2237,-1.2237,-1.2236,0,-1.2017,-1.2017,-1.2044,-1.205,-1.2061,-1.2069,-1.2077,-1.2103,-1.2111,-1.2133,-1.2133,-1.2147,-1.2159,-1.2176,-1.2198,-1.2212,-1.2221,-1.2208,-1.2223,-1.2216,-1.222,-1.2219,-1.222,-1.2204,-1.2203,-1.2203,-1.2202,0,-1.1978,-1.199,-1.2,-1.2015,-1.2024,-1.2037,-1.2051,-1.2054,-1.2084,-1.2091,-1.2104,-1.2113,-1.2132,-1.2145,-1.2163,-1.2176,-1.2194,-1.2198,-1.2197,-1.2189,-1.218,-1.2184,-1.2228,-1.2198,-1.2198,-1.2199,-1.2199,-1.2199,-1.1947,-1.1949,-1.1968,-1.198,-1.1993,-1.2006,-1.2011,-1.2029,-1.204,-1.2057,-1.2072,-1.2083,-1.2103,-1.2129,-1.2141,-1.215,-1.2159,-1.2157,-1.2157,-1.2156,-1.2153,-1.2179,-1.2154,-1.2154,-1.2154,-1.2154,-1.2154,0,-1.191,-1.1924,-1.1934,-1.1954,-1.1963,-1.198,-1.1997,-1.2003,-1.2012,-1.2029,-1.2041,-1.2056,-1.2069,-1.2093,-1.2108,-1.2111,-1.212,-1.2115,-1.2114,-1.2117,-1.2144,-1.2143,-1.2107,-1.2107,-1.2107,-1.2107,-1.2107,-1.2107,-1.1891,-1.1895,-1.1909,-1.1921,-1.1936,-1.1947,-1.1955,-1.1968,-1.1981,-1.1996,-1.2008,-1.2023,-1.2043,-1.2061,-1.2074,-1.2081,-1.2085,-1.2077,-1.2086,-1.2111,-1.2115,-1.2119,-1.2119,-1.2078,-1.2078,-1.2058,-1.2058,-1.2058]}]]